Location: Caltech
(34.1382°N, 118.1253°W)
Time: 05:07:59
(UTC-07:00)

Iridium 65 - Visible Passes

Search period start: 22 June 2017 00:00
Search period end: 02 July 2017 00:00
Orbit: 776 x 779 km, 86.4° (Epoch: 21 June)

Date Brightness Start Highest point End Pass type
(mag) Time Alt. Az. Time Alt. Az. Time Alt. Az.
22 Jun 6.2 20:59:31 10° SSE 21:04:16 37° E 21:09:00 10° NNE visible
22 Jun 7.8 22:41:15 10° SW 22:45:02 20° W 22:48:51 10° NNW visible
23 Jun 6.8 22:06:30 10° SSW 22:11:19 38° W 22:16:11 10° NNW visible
24 Jun 5.7 21:32:32 10° S 21:37:44 76° W 21:42:57 10° N visible
25 Jun 5.7 20:59:12 10° SSE 21:04:15 55° E 21:09:21 10° NNE visible
25 Jun 8.2 22:42:48 10° WSW 22:45:18 13° WNW 22:47:49 10° NW visible
26 Jun 7.5 22:07:12 10° SW 22:11:30 26° W 22:15:50 10° NNW visible
27 Jun 6.4 21:32:48 10° SSW 21:37:50 50° W 21:42:54 10° N visible
28 Jun 5.5 20:59:06 10° S 21:04:18 83° E 21:09:32 10° N visible
29 Jun 8.1 22:08:18 10° WSW 22:11:44 18° WNW 22:15:11 10° NW visible
30 Jun 7.2 21:33:19 10° SSW 21:38:00 33° W 21:42:42 10° NNW visible
01 Jul 6.0 20:59:13 10° S 21:04:23 66° W 21:09:34 10° N visible
